Date,TemperatureHighF,TemperatureAvgF,TemperatureLowF,DewpointHighF,DewpointAvgF,DewpointLowF,HumidityHigh,HumidityAvg,HumidityLow,PressureMaxIn,PressureMinIn,WindSpeedMaxMPH,WindSpeedAvgMPH,GustSpeedMaxMPH,PrecipitationSumIn
2013-8-1,86,76,73,79,74,72,98,93,75,30.00,29.91,13,0,13,1.18
2013-8-2,92,81,72,80,75,71,98,84,61,30.00,29.90,12,0,12,0.00
2013-8-3,94,82,74,82,77,73,98,86,60,30.00,29.92,10,0,10,0.05
2013-8-4,92,83,75,81,77,74,97,83,65,29.99,29.88,14,1,14,0.00
2013-8-5,89,81,74,79,76,72,96,87,73,29.96,29.90,16,1,16,0.00
2013-8-6,86,81,76,79,76,74,97,86,77,29.98,29.88,12,1,12,0.00
2013-8-7,86,80,73,77,74,71,98,83,68,30.01,29.93,12,1,12,0.00
2013-8-8,89,80,73,80,76,72,98,88,69,30.03,29.93,11,0,11,0.00
2013-8-9,91,83,75,79,77,74,97,83,62,30.07,29.96,11,0,11,0.00
2013-8-10,91,82,73,79,76,72,98,82,60,30.11,30.03,12,0,12,0.00
2013-8-11,94,83,77,81,78,75,97,85,57,30.13,30.03,8,0,9,0.04
2013-8-12,96,82,76,80,76,73,97,85,56,30.08,29.96,30,0,32,0.85
2013-8-13,95,84,76,80,76,74,96,79,55,30.00,29.84,10,0,10,0.00
2013-8-14,95,82,70,81,75,69,97,82,55,30.00,29.81,17,0,18,0.85
2013-8-15,91,76,70,80,73,69,98,93,63,30.01,29.90,15,1,15,1.99
2013-8-16,89,78,72,79,74,71,99,89,67,30.03,29.89,11,0,11,1.25
2013-8-17,84,77,71,78,75,70,98,93,78,30.11,29.98,16,0,19,1.23
2013-8-18,88,80,70,80,76,69,98,89,74,30.11,30.03,14,0,14,0.01
2013-8-19,89,81,74,81,77,71,99,87,69,30.08,29.96,11,1,12,0.03
2013-8-20,89,80,71,81,75,70,98,88,70,30.10,30.00,11,0,11,0.10
2013-8-21,88,80,74,80,76,73,98,89,71,30.16,30.06,11,0,11,0.00
2013-8-22,87,79,75,79,76,74,98,91,74,30.11,29.99,8,0,8,0.04
2013-8-23,86,78,72,79,75,71,98,91,73,30.03,29.96,7,0,7,0.01
2013-8-24,85,77,73,76,74,72,98,91,71,30.13,29.99,12,1,12,1.68
2013-8-25,82,77,72,75,72,68,98,85,67,30.21,30.12,22,3,22,0.05
2013-8-26,82,75,70,75,72,69,97,91,76,30.19,30.07,16,2,16,0.29
2013-8-27,86,77,70,76,71,69,98,85,61,30.10,29.99,8,0,9,0.01
2013-8-28,90,77,68,75,71,67,98,84,59,30.03,29.93,10,0,11,0.00
2013-8-29,93,81,71,79,74,69,97,81,58,29.98,29.85,14,0,14,0.00
2013-8-30,89,80,74,81,76,72,95,87,73,29.93,29.86,11,1,12,0.00
2013-8-31,89,80,72,81,75,71,98,87,66,29.93,29.84,9,0,9,0.00